OBEE50-LTU-OC

Last updated on Sun Jun 04 2017 00:15:04 GMT+0000 (Coordinated Universal Time)

1 42708U 98067LR 17154.45440183 .00008809 00000-0 13435-3 0 9992 2 42708 51.6396 106.6339 0000817 239.4054 120.6856 15.55300025 2662
UTC large
Height (km)
Speed (km/s)
/
Latitude / Longitude
Inclination (degrees)
Orbital Period (minutes)
Azimuth
Elevation
Range (km)
Doppler Factor

Next 0 passes for location: London (51.5072 / 0.1276)

Sorry there are no passes over London.